Flag for Germany Weather past 2 weeks in Lörrach, Baden-Württemberg, Germany

Now
64 °F

Thundershowers. Broken clouds.


Feels Like: 64 °F
Forecast: 43 / 54 °F
Wind: 12 mph from North

Location: Bale-Mulhouse

Current Time: Apr 27, 2015 at 5:36:50 PM

Latest Report: Apr 27, 2015 at 5:00 PM


Visibility: N/A

Pressure: 29.53 "Hg

Humidity: 73%

Dew point: 55 °F

Location of LörrachLocation

Historic Weather in Lörrach — Graph

°F

Lörrach temperature yesterday

Maximum temperature yesterday: 70 °F (at 3:30 PM)
Minimum temperature yesterday: 48 °F (at 6:30 AM)
Average temperature yesterday: 59 °F

Past Weeks' High & Low Weather Summary

 TemperatureHumidityPressure
High79 °F (Apr 15, 4:00 PM)100% (Apr 13, 5:30 AM)30.48 "Hg (Apr 13, 5:30 AM)
Low32 °F (Apr 19, 6:30 AM)20% (Apr 15, 4:30 PM)29.50 "Hg (Apr 27, 4:00 PM)
Average56 °F64%30.08 "Hg
* Reported Apr 12 4:00 PM — Apr 27 4:30 PM, Lörrach, Weather by CustomWeather, © 2015

Note: Actual official high and low records may vary slightly from our data, if they occured in-between our weather recording intervals... More about our weather records

Advertising

Lörrach weather history for previous 24 hours

 ConditionsComfort  
Time TempWeatherWind HumidityBarometerVisibility
4:30 PM
Mon, Apr 27
66 °FBroken clouds.10 mph68%29.50 "HgN/A
4:00 PM70 °FPartly sunny.10 mph64%29.50 "HgN/A
3:30 PM68 °FScattered clouds.9 mph69%29.53 "HgN/A
3:00 PM68 °FScattered clouds.9 mph64%29.53 "HgN/A
2:30 PM68 °FScattered clouds.9 mph64%29.53 "HgN/A
2:00 PM66 °FScattered clouds.6 mph68%29.53 "HgN/A
1:30 PM64 °FBroken clouds.5 mph73%29.56 "HgN/A
1:00 PM64 °FBroken clouds.6 mph73%29.56 "HgN/A
12:30 PM63 °FPartly sunny.5 mph77%29.56 "HgN/A
12:00 PM63 °FPartly sunny.2 mph77%29.59 "HgN/A
11:30 AM61 °FPartly sunny.2 mph83%29.59 "HgN/A
11:00 AM61 °FPartly sunny.3 mph77%29.59 "HgN/A
10:30 AM59 °FScattered showers. Partly sunny.5 mph82%29.59 "HgN/A
10:00 AM57 °FScattered showers. Partly sunny.2 mph88%29.59 "HgN/A
9:30 AM57 °FSprinkles. Broken clouds.3 mph88%29.59 "HgN/A
9:00 AM57 °FScattered showers. Broken clouds.3 mph88%29.59 "HgN/A
8:30 AM55 °FPartly sunny.7 mph94%29.59 "HgN/A
8:00 AM55 °FPartly sunny.3 mph94%29.62 "HgN/A
7:30 AM54 °FPartly sunny.2 mph94%29.59 "HgN/A
7:00 AM52 °FPassing clouds.No wind100%29.59 "HgN/A
6:30 AM52 °FPassing clouds.2 mph94%29.59 "HgN/A
6:00 AM52 °FPartly cloudy.No wind94%29.59 "HgN/A
5:30 AM52 °FPassing clouds.2 mph94%29.59 "HgN/A
5:00 AM54 °FPassing clouds.No wind94%29.62 "HgN/A
4:30 AM55 °FPassing clouds.2 mph88%29.62 "HgN/A
4:00 AM55 °FMostly cloudy.2 mph88%29.62 "HgN/A
3:30 AM57 °FClear.2 mph82%29.62 "HgN/A
3:00 AM57 °FPassing clouds.3 mph88%29.62 "HgN/A
2:30 AM57 °FCool.2 mph88%29.65 "HgN/A
2:00 AM57 °FCool.2 mph88%29.65 "HgN/A
1:30 AM55 °FPassing clouds.3 mph100%29.65 "HgN/A
1:00 AM57 °FPartly cloudy.1 mph94%29.65 "HgN/A
12:30 AM55 °FPassing clouds.2 mph100%29.65 "HgN/A
12:00 AM57 °FPartly cloudy.3 mph88%29.65 "HgN/A
11:30 PM
Sun, Apr 26
57 °FPartly cloudy.3 mph94%29.65 "HgN/A
11:00 PM57 °FPassing clouds.2 mph94%29.65 "HgN/A
10:30 PM57 °FRain showers. Partly cloudy.5 mph94%29.65 "Hg5 mi
10:00 PM59 °FSprinkles. Partly cloudy.3 mph88%29.65 "HgN/A
9:30 PM59 °FBroken clouds.2 mph88%29.65 "HgN/A
9:00 PM61 °FBroken clouds.No wind83%29.65 "HgN/A
8:30 PM61 °FBroken clouds.No wind83%29.65 "HgN/A
8:00 PM61 °FPartly sunny.No wind77%29.65 "HgN/A
7:30 PM63 °FBroken clouds.No wind77%29.65 "HgN/A
7:00 PM61 °FBroken clouds.3 mph83%29.65 "HgN/A
6:30 PM63 °FBroken clouds.7 mph77%29.68 "HgN/A
6:00 PM64 °FPartly sunny.9 mph73%29.68 "HgN/A
5:30 PM68 °FBroken clouds.2 mph60%29.68 "HgN/A
5:00 PM64 °FBroken clouds.3 mph68%29.68 "HgN/A
Weather by CustomWeather, © 2015

See weather overviewHow to use our weather pages